Location: Brownlee
(50.7397°N, 106.0159°W)
Time: 08:08:44
(UTC+00:00)

Envisat - Pass Details

Date: 08 December 2022
Orbit: 763 x 765 km, 98.2° (Epoch: 04 February)

Event Time Altitude Azimuth Distance (km) Brightness Sun altitude
Rises 11:12:42 0° 16° (NNE) 3,247 6.5 -33.6°
Reaches altitude 10° 11:15:03 10° 19° (NNE) 2,316 5.7 -33.2°
Enters shadow 11:16:53 22° 25° (NNE) 1,619 4.9 -32.9°
